AIC279 NZAA-YMML

Flight info

Callsign AIC279
Flight time N/A
Altitude 36000
Route AKELA2QPEBLU/05R PEBLU N759 GEMAC Q302 RIMSU DCT BOYSE
Aircraft A320/M-SDE3FGHIRWY/LB1

Departure

Time N/A
Airport Auckland International Airport (NZAA)

Arrival

Time 2026-05-01 13:49
Airport Melbourne Airport (YMML)
Time Latitude Longitude Altitude Speed Heading
2026-05-01 12:43 -38.41260 152.97680 37445 ft 454 kts 275°
2026-05-01 12:43 -38.41022 152.93726 37445 ft 454 kts 275°
2026-05-01 12:43 -38.40537 152.85708 37443 ft 453 kts 275°
2026-05-01 12:44 -38.40039 152.77699 37443 ft 453 kts 275°
2026-05-01 12:45 -38.39038 152.61680 37436 ft 453 kts 275°
2026-05-01 12:45 -38.38542 152.53683 37433 ft 452 kts 275°
2026-05-01 12:46 -38.38037 152.45692 37434 ft 452 kts 275°
2026-05-01 12:46 -38.37525 152.37712 37426 ft 452 kts 275°
2026-05-01 12:47 -38.36998 152.29740 37426 ft 451 kts 275°
2026-05-01 12:47 -38.36462 152.21826 37422 ft 451 kts 276°
2026-05-01 12:48 -38.35930 152.13860 37421 ft 451 kts 275°
2026-05-01 12:48 -38.35404 152.05899 37417 ft 451 kts 276°
2026-05-01 12:49 -38.34870 151.97939 37415 ft 451 kts 276°
2026-05-01 12:49 -38.34326 151.89988 37412 ft 451 kts 276°
2026-05-01 12:50 -38.33776 151.82034 37412 ft 451 kts 276°
2026-05-01 12:50 -38.33213 151.74087 37409 ft 450 kts 276°
2026-05-01 12:51 -38.32653 151.66195 37407 ft 450 kts 276°
2026-05-01 12:52 -38.31797 151.54289 37401 ft 450 kts 276°
2026-05-01 12:52 -38.30941 151.42384 37398 ft 450 kts 276°
2026-05-01 12:53 -38.30067 151.30489 37388 ft 450 kts 277°
2026-05-01 12:54 -38.29471 151.22575 37382 ft 449 kts 277°
2026-05-01 12:54 -38.28588 151.10692 37373 ft 449 kts 277°
2026-05-01 12:55 -38.27682 150.98874 37366 ft 450 kts 277°
2026-05-01 12:56 -38.27065 150.90950 37367 ft 450 kts 277°
2026-05-01 12:56 -38.26440 150.83038 37364 ft 450 kts 277°
2026-05-01 12:57 -38.25822 150.75123 37361 ft 450 kts 277°
2026-05-01 12:57 -38.24881 150.63248 37357 ft 450 kts 277°
2026-05-01 12:58 -38.24238 150.55339 37353 ft 450 kts 277°
2026-05-01 12:59 -38.23282 150.43463 37350 ft 450 kts 277°
2026-05-01 12:59 -38.22281 150.31594 37349 ft 450 kts 279°
2026-05-01 13:00 -38.20669 150.19852 37345 ft 449 kts 283°
2026-05-01 13:01 -38.18855 150.08225 37340 ft 449 kts 282°
2026-05-01 13:02 -38.17149 149.96518 37331 ft 449 kts 282°
2026-05-01 13:07 -38.04313 149.11242 37285 ft 453 kts 282°
2026-05-01 13:08 -38.03091 149.03388 37285 ft 454 kts 282°
2026-05-01 13:08 -38.01870 148.95532 37285 ft 454 kts 282°
2026-05-01 13:09 -38.00637 148.87670 37289 ft 454 kts 282°
2026-05-01 13:09 -37.99406 148.79818 37286 ft 454 kts 282°
2026-05-01 13:10 -37.98169 148.71964 37283 ft 454 kts 282°
2026-05-01 13:10 -37.96928 148.64124 37280 ft 454 kts 282°
2026-05-01 13:11 -37.95685 148.56289 37280 ft 453 kts 282°
2026-05-01 13:11 -37.94430 148.48465 37281 ft 453 kts 282°
2026-05-01 13:12 -37.93175 148.40645 37273 ft 453 kts 282°
2026-05-01 13:12 -37.91910 148.32835 37278 ft 452 kts 282°
2026-05-01 13:13 -37.90641 148.25035 37275 ft 452 kts 282°
2026-05-01 13:13 -37.89376 148.17244 37278 ft 451 kts 282°
2026-05-01 13:14 -37.88118 148.09517 37276 ft 451 kts 282°
2026-05-01 13:14 -37.86847 148.01747 37276 ft 451 kts 283°
2026-05-01 13:15 -37.85557 147.93985 37281 ft 451 kts 283°
2026-05-01 13:15 -37.84275 147.86223 37279 ft 451 kts 283°
2026-05-01 13:16 -37.82989 147.78463 37289 ft 451 kts 283°
2026-05-01 13:16 -37.81688 147.70714 37279 ft 450 kts 283°
2026-05-01 13:17 -37.79089 147.55226 37289 ft 450 kts 283°
2026-05-01 13:18 -37.77127 147.43633 37287 ft 450 kts 283°
2026-05-01 13:18 -37.75809 147.35902 37292 ft 450 kts 283°
2026-05-01 13:19 -37.74495 147.28233 37296 ft 450 kts 283°
2026-05-01 13:20 -37.72503 147.16639 37297 ft 450 kts 284°
2026-05-01 13:20 -37.71172 147.08921 37301 ft 450 kts 284°
2026-05-01 13:21 -37.69165 146.97364 36736 ft 447 kts 284°
2026-05-01 13:21 -37.68493 146.93536 36082 ft 445 kts 284°
2026-05-01 13:21 -37.67841 146.89813 35835 ft 435 kts 284°
2026-05-01 13:22 -37.67623 146.88561 35749 ft 431 kts 284°
2026-05-01 13:23 -37.63969 146.67779 33038 ft 406 kts 284°
2026-05-01 13:23 -37.63359 146.64323 32546 ft 402 kts 284°
2026-05-01 13:23 -37.62960 146.62072 32236 ft 400 kts 285°
2026-05-01 13:24 -37.62354 146.58663 31758 ft 396 kts 285°
2026-05-01 13:24 -37.61753 146.55284 31299 ft 393 kts 285°
2026-05-01 13:24 -37.61153 146.51932 30843 ft 391 kts 285°
2026-05-01 13:25 -37.59725 146.45418 29898 ft 380 kts 296°
2026-05-01 13:25 -37.58615 146.42419 29445 ft 375 kts 297°
2026-05-01 13:25 -37.57514 146.39462 29006 ft 370 kts 297°
2026-05-01 13:25 -37.56427 146.36542 28579 ft 366 kts 297°
2026-05-01 13:26 -37.55354 146.33657 28151 ft 361 kts 297°
2026-05-01 13:26 -37.54293 146.30804 27723 ft 358 kts 297°
2026-05-01 13:26 -37.53254 146.28012 27310 ft 355 kts 297°
2026-05-01 13:26 -37.52211 146.25215 26885 ft 352 kts 297°
2026-05-01 13:27 -37.51172 146.22436 26455 ft 349 kts 297°
2026-05-01 13:27 -37.50141 146.19682 26029 ft 347 kts 297°
2026-05-01 13:27 -37.48092 146.14208 25143 ft 344 kts 298°
2026-05-01 13:28 -37.46057 146.08768 24234 ft 343 kts 298°
2026-05-01 13:28 -37.45040 146.06055 23754 ft 342 kts 298°
2026-05-01 13:29 -37.43013 146.00669 22814 ft 338 kts 298°
2026-05-01 13:29 -37.41010 145.95349 21920 ft 334 kts 297°
2026-05-01 13:30 -37.37054 145.84869 20209 ft 329 kts 298°
2026-05-01 13:31 -37.35093 145.79677 19377 ft 328 kts 298°
2026-05-01 13:31 -37.32143 145.71912 18063 ft 328 kts 296°
2026-05-01 13:32 -37.31546 145.66276 17230 ft 335 kts 262°
2026-05-01 13:33 -37.35066 145.58626 15960 ft 343 kts 237°
2026-05-01 13:33 -37.37876 145.53778 15102 ft 344 kts 237°
2026-05-01 13:34 -37.40691 145.48909 14242 ft 344 kts 237°
2026-05-01 13:34 -37.43412 145.44194 13363 ft 322 kts 237°
2026-05-01 13:35 -37.46294 145.40111 12585 ft 305 kts 224°
2026-05-01 13:35 -37.47894 145.38360 12212 ft 305 kts 224°
2026-05-01 13:35 -37.51092 145.34827 11436 ft 307 kts 224°
2026-05-01 13:36 -37.52700 145.33046 11049 ft 308 kts 224°
2026-05-01 13:36 -37.54314 145.31261 10630 ft 309 kts 224°
2026-05-01 13:36 -37.57492 145.27740 9806 ft 298 kts 224°
2026-05-01 13:37 -37.59020 145.26047 9395 ft 287 kts 224°
2026-05-01 13:37 -37.60497 145.24414 8917 ft 282 kts 224°
2026-05-01 13:37 -37.61975 145.22788 8399 ft 278 kts 224°
2026-05-01 13:37 -37.63420 145.21209 8073 ft 268 kts 225°
2026-05-01 13:38 -37.66261 145.18096 7637 ft 273 kts 225°
2026-05-01 13:38 -37.67688 145.16525 7138 ft 269 kts 225°
2026-05-01 13:38 -37.69059 145.15022 6786 ft 260 kts 226°
2026-05-01 13:39 -37.70403 145.13552 6463 ft 253 kts 226°
2026-05-01 13:39 -37.71627 145.11998 6144 ft 246 kts 240°
2026-05-01 13:39 -37.72378 145.10118 5862 ft 236 kts 261°
2026-05-01 13:39 -37.72619 145.08102 5652 ft 230 kts 275°
2026-05-01 13:40 -37.72665 145.06079 5435 ft 230 kts 275°
2026-05-01 13:40 -37.72722 145.04057 5218 ft 230 kts 274°
2026-05-01 13:40 -37.72783 145.02038 5002 ft 230 kts 274°
2026-05-01 13:40 -37.72843 145.00018 4781 ft 230 kts 275°
2026-05-01 13:41 -37.72901 144.97992 4565 ft 231 kts 275°
2026-05-01 13:41 -37.72958 144.95968 4472 ft 231 kts 275°
2026-05-01 13:41 -37.73014 144.93935 4379 ft 232 kts 275°
2026-05-01 13:41 -37.73069 144.91904 4171 ft 231 kts 276°
2026-05-01 13:42 -37.73123 144.89879 3835 ft 231 kts 276°
2026-05-01 13:42 -37.73179 144.87857 3602 ft 229 kts 276°
2026-05-01 13:42 -37.73517 144.85846 3474 ft 246 kts 245°
2026-05-01 13:42 -37.74787 144.84368 3354 ft 256 kts 204°
2026-05-01 13:43 -37.76541 144.84102 3224 ft 257 kts 168°
2026-05-01 13:43 -37.78269 144.84641 3110 ft 256 kts 158°
2026-05-01 13:43 -37.79955 144.85353 2928 ft 256 kts 157°
2026-05-01 13:43 -37.81610 144.86083 2721 ft 255 kts 151°
2026-05-01 13:44 -37.82897 144.87463 2549 ft 230 kts 109°
2026-05-01 13:44 -37.83126 144.89234 2462 ft 190 kts 66°
2026-05-01 13:44 -37.82443 144.90490 2484 ft 161 kts 30°
2026-05-01 13:44 -37.81456 144.90868 2476 ft 146 kts
2026-05-01 13:45 -37.80546 144.90410 2474 ft 150 kts 323°
2026-05-01 13:45 -37.79843 144.89503 2492 ft 136 kts 331°
2026-05-01 13:45 -37.79095 144.88759 2426 ft 136 kts 332°
2026-05-01 13:45 -37.78356 144.88018 2298 ft 135 kts 332°
2026-05-01 13:46 -37.77624 144.87284 2150 ft 134 kts 332°
2026-05-01 13:46 -37.76893 144.86553 1987 ft 134 kts 333°
2026-05-01 13:46 -37.76104 144.85967 1844 ft 132 kts 343°
2026-05-01 13:46 -37.75239 144.85578 1683 ft 131 kts 351°
2026-05-01 13:47 -37.74345 144.85296 1511 ft 134 kts 352°
2026-05-01 13:47 -37.73435 144.85028 1383 ft 136 kts 353°
2026-05-01 13:47 -37.72504 144.84840 1134 ft 136 kts 354°
2026-05-01 13:47 -37.71565 144.84673 950 ft 136 kts 352°
2026-05-01 13:48 -37.70633 144.84512 801 ft 136 kts 352°
2026-05-01 13:48 -37.69699 144.84313 627 ft 137 kts 351°
2026-05-01 13:48 -37.68764 144.84127 422 ft 136 kts 352°
2026-05-01 13:48 -37.67880 144.83969 362 ft 111 kts 351°
2026-05-01 13:49 -37.67327 144.83858 384 ft 54 kts 348°
2026-05-01 13:49 -37.67090 144.83826 392 ft 18 kts
2026-05-01 13:49 -37.66969 144.83854 392 ft 17 kts 14°
2026-05-01 13:49 -37.66864 144.83897 397 ft 13 kts 18°